This is the latest recevied weather packets stored in our database for station/object K1LVA. If no packets are shown the sender has not sent any weather packets the latest 10 day(s).
| Time | Temp. | Humidity | Pressure | Rain* | Wind** | Luminosity | Snow |
|---|---|---|---|---|---|---|---|
| 1777574016 | 23.89° C | 74% | 1009.6 hPa | 0 mm | - | 229 W/m² | - |
| 1777573716 | 23.89° C | 74% | 1010 hPa | 0 mm | - | 291 W/m² | - |
| 1777573413 | 23.89° C | 72% | 1009.8 hPa | 0 mm | - | 475 W/m² | - |
| 1777573109 | 23.89° C | 73% | 1010 hPa | 0 mm | - | 397 W/m² | - |
| 1777572805 | 23.89° C | 74% | 1009.9 hPa | 0 mm | - | 440 W/m² | - |
| 1777572501 | 23.33° C | 75% | 1009.8 hPa | 0 mm | - | 696 W/m² | - |
| 1777572196 | 23.33° C | 77% | 1009.8 hPa | 0 mm | - | 460 W/m² | - |
| 1777571892 | 23.33° C | 77% | 1010 hPa | 0 mm | - | 224 W/m² | - |
| 1777571587 | 22.78° C | 77% | 1009.5 hPa | 0 mm | - | 686 W/m² | - |
| 1777571285 | 22.78° C | 78% | 1010 hPa | 0 mm | - | 668 W/m² | - |
| 1777570981 | 23.33° C | 79% | 1009.7 hPa | 0 mm | - | 336 W/m² | - |
| 1777570677 | 23.33° C | 78% | 1010 hPa | 0 mm | - | 291 W/m² | - |
| 1777570373 | 22.78° C | 79% | 1010 hPa | 0 mm | - | 378 W/m² | - |
| 1777570068 | 22.22° C | 78% | 1009.8 hPa | 0 mm | - | 702 W/m² | - |
| 1777569764 | 22.78° C | 79% | 1010 hPa | 0 mm | - | 363 W/m² | - |
| 1777569460 | 22.78° C | 80% | 1010.1 hPa | 0 mm | - | 297 W/m² | - |
| 1777569157 | 22.78° C | 78% | 1010.3 hPa | 0 mm | - | 363 W/m² | - |
| 1777568854 | 22.78° C | 82% | 1010.1 hPa | 0 mm | - | 666 W/m² | - |
| 1777568551 | 22.22° C | 82% | 1010.3 hPa | 0 mm | - | 439 W/m² | - |
| 1777568247 | 22.22° C | 85% | 1010.4 hPa | 0 mm | - | 358 W/m² | - |
| 1777567945 | 22.22° C | 82% | 1010.4 hPa | 0 mm | - | 409 W/m² | - |
| 1777567641 | 21.67° C | 84% | 1010.5 hPa | 0 mm | - | 738 W/m² | - |
| 1777567338 | 21.67° C | 85% | 1010.1 hPa | 0 mm | - | 580 W/m² | - |
| 1777567036 | 21.11° C | 87% | 1010.5 hPa | 0 mm | - | 340 W/m² | - |
| 1777566734 | 21.11° C | 86% | 1010.6 hPa | 0 mm | - | 330 W/m² | - |
* Rain latest hour (hover to see other rain measurements)
** Current wind speed in m/s (hover to see current wind gust speed)